Starlink 6301

operational
NORAD ID: 56392 Int'l Des: 2023-061 Owner: SPXS Country: US Constellation: starlink
LEOCIRCULAR

关于 Starlink 6301

正在加载描述...

实时位置

正在加载3D地球...

即将过境

高度历史

Altitude vs Time

uPlot chart will show altitude changes over time

两行轨道根数

1 56392U 23061U 25259.15425975 .00000485 00000-0 50974-4 0 9994
2 56392 43.0028 53.3891 0001371 274.6169 85.4516 15.02538589130649
Epoch: Sep 16, 2025 • Age: 14 hours

当前状态

高度 571.3 km
速度 7.58 km/s
星下点 -42.69°S, 49.48°E
发射日期 May 4, 2023
运行时间 2.3 years
类型 internet

技术详情

分类 Payload
质量 305.00 kg
干质量 290.00 kg
总质量 305.00 kg
长度 0.20 m
直径 2.80 m
跨度 9.00 m
形状 Box + pan
制造商 SPXS
平台类型 Starlink
阶段状态 In Orbit
所有者/国家 SPXS/US

大型星座

Loading constellations...